Weather History for KRZL - May, 2014

Change the Weather History Date:

Wednesday, May 7, 2014

  Actual Average (KVPZ) Record (KVPZ)
Temperature  
Mean Temperature 70 °F 56 °F  
Max Temperature 86 °F 68 °F 86 °F (2015)
Min Temperature 53 °F 45 °F 38 °F (2006)
Degree Days  
Heating Degree Days 0 9  
Month to date heating degree days 69  
Since 1 July heating degree days 6128  
Cooling Degree Days 4 1  
Month to date cooling degree days 3  
Year to date cooling degree days 8  
Growing Degree Days 20 (Base 50)    
Moisture  
Dew Point 50 °F    
Average Humidity 49    
Maximum Humidity 62    
Minimum Humidity 40    
Precipitation  
Precipitation 0.00 in 0.12 in 1.25 in (1998)
Month to date precipitation 0.93  
Year to date precipitation 10.11  
Sea Level Pressure  
Sea Level Pressure 29.85 in    
Wind  
Wind Speed 13 mph (SE)    
Max Wind Speed 22 mph    
Max Gust Speed 28 mph    
Visibility 10 miles    
Events Thunderstorm    
T = Trace of Precipitation, MM = Missing Value Source: NWS Daily Summary

Daily Weather History Graph

Daily Weather History Graph

Search for Another Location

Airport or City:

Trip Planner

Search our weather history database for the weather conditions in past years. The results will help you decide how hot, cold, wet, or windy it might be!

Date:

Astronomy

May. 07, 2014 Rise Set
Actual Time 5:39 AM CDT 7:51 PM CDT
Civil Twilight 5:09 AM CDT 8:22 PM CDT
Nautical Twilight 4:31 AM CDT 8:59 PM CDT
Astronomical Twilight 3:50 AM CDT 9:40 PM CDT
Moon 12:53 PM CDT (5/7) 1:41 AM CDT (5/7)
Length of Visible Light 15h 13m
Length of Day
14h 12m
First Quarter, 55% of the Moon is Illuminated
May 7
First Quarter
May 14
Full
May 21
Last Quarter
May 28
New
Jun 5
First Quarter

Hourly Weather History & Observations

Time (CDT) Temp. Heat Index Dew Point Humidity Pressure Visibility Wind Dir Wind Speed Gust Speed Precip Events Conditions
12:15 AM 55.4 °F - 35.6 °F 47% 29.88 in 10.0 mi East 17.3 mph 23.0 mph N/A   Clear
12:35 AM 55.4 °F - 35.6 °F 47% 29.89 in 10.0 mi East 18.4 mph - N/A   Clear
1:15 AM 53.6 °F - 35.6 °F 51% 29.88 in 10.0 mi East 16.1 mph - N/A   Clear
1:35 AM 53.6 °F - 33.8 °F 47% 29.86 in 10.0 mi East 18.4 mph 23.0 mph N/A   Clear
1:55 AM 53.6 °F - 35.6 °F 51% 29.87 in 10.0 mi East 11.5 mph - N/A   Clear
2:15 AM 53.6 °F - 35.6 °F 51% 29.86 in 10.0 mi East 13.8 mph - N/A   Clear
2:35 AM 53.6 °F - 35.6 °F 51% 29.85 in 10.0 mi East 12.7 mph - N/A   Clear
2:55 AM 53.6 °F - 35.6 °F 51% 29.86 in 10.0 mi East 10.4 mph - N/A   Clear
3:15 AM 53.6 °F - 35.6 °F 51% 29.85 in 10.0 mi East 10.4 mph - N/A   Clear
3:35 AM 53.6 °F - 35.6 °F 51% 29.83 in 10.0 mi East 12.7 mph - N/A   Clear
3:55 AM 53.6 °F - 37.4 °F 54% 29.85 in 10.0 mi East 12.7 mph 16.1 mph N/A   Clear
4:15 AM 53.6 °F - 37.4 °F 54% 29.84 in 10.0 mi East 9.2 mph - N/A   Clear
4:35 AM 53.6 °F - 37.4 °F 54% 29.83 in 10.0 mi East 12.7 mph - N/A   Clear
4:55 AM 53.6 °F - 39.2 °F 58% 29.83 in 10.0 mi ESE 10.4 mph - N/A   Clear
5:15 AM 53.6 °F - 39.2 °F 58% 29.83 in 10.0 mi ESE 11.5 mph 17.3 mph N/A   Clear
5:35 AM 53.6 °F - 41.0 °F 62% 29.84 in 10.0 mi East 8.1 mph - N/A   Clear
5:55 AM 53.6 °F - 41.0 °F 62% 29.86 in 10.0 mi ENE 9.2 mph - N/A   Clear
6:15 AM 53.6 °F - 41.0 °F 62% 29.86 in 10.0 mi ENE 10.4 mph - N/A   Clear
6:35 AM 53.6 °F - 41.0 °F 62% 29.86 in 10.0 mi ENE 13.8 mph - N/A   Clear
6:55 AM 55.4 °F - 41.0 °F 58% 29.87 in 10.0 mi East 11.5 mph - N/A   Clear
7:15 AM 55.4 °F - 41.0 °F 58% 29.87 in 10.0 mi East 13.8 mph - N/A   Clear
7:35 AM 57.2 °F - 42.8 °F 59% 29.87 in 10.0 mi East 15.0 mph - N/A   Clear
7:55 AM 59.0 °F - 42.8 °F 55% 29.86 in 10.0 mi East 12.7 mph - N/A   Clear
8:15 AM 60.8 °F - 44.6 °F 55% 29.87 in 10.0 mi ESE 11.5 mph - N/A   Clear
8:35 AM 62.6 °F - 46.4 °F 55% 29.88 in 10.0 mi SE 9.2 mph - N/A   Clear
8:55 AM 64.4 °F - 46.4 °F 52% 29.88 in 10.0 mi SE 9.2 mph - N/A   Clear
9:15 AM 68.0 °F - 50.0 °F 52% 29.88 in 10.0 mi SSE 9.2 mph - N/A   Clear
9:35 AM 68.0 °F - 51.8 °F 56% 29.89 in 10.0 mi SSE 5.8 mph - N/A   Clear
9:55 AM 69.8 °F - 51.8 °F 53% 29.88 in 10.0 mi SSE 5.8 mph - N/A   Clear
10:15 AM 71.6 °F - 53.6 °F 53% 29.87 in 10.0 mi ESE 6.9 mph - N/A   Clear
10:55 AM 75.2 °F - 55.4 °F 50% 29.86 in 10.0 mi East 5.8 mph - N/A   Clear
11:15 AM 78.8 °F - 55.4 °F 44% 29.86 in 10.0 mi SSE 10.4 mph - N/A   Clear
11:35 AM 78.8 °F - 55.4 °F 44% 29.84 in 10.0 mi SSE 10.4 mph - N/A   Clear
11:55 AM 78.8 °F - 57.2 °F 47% 29.83 in 10.0 mi SSE 10.4 mph - N/A   Clear
12:15 PM 80.6 °F 80.8 °F 57.2 °F 45% 29.83 in 10.0 mi South 11.5 mph 16.1 mph N/A   Clear
12:35 PM 80.6 °F 80.8 °F 57.2 °F 45% 29.85 in 10.0 mi SSE 10.4 mph 17.3 mph N/A   Clear
12:55 PM 82.4 °F 82.0 °F 57.2 °F 42% 29.83 in 10.0 mi SE 8.1 mph - N/A   Clear
1:15 PM 82.4 °F 82.5 °F 59.0 °F 45% 29.83 in 10.0 mi South 16.1 mph 26.5 mph N/A   Clear
1:35 PM 82.4 °F 82.5 °F 59.0 °F 45% 29.84 in 10.0 mi South 12.7 mph 17.3 mph N/A   Scattered Clouds
1:55 PM 84.2 °F 83.8 °F 59.0 °F 42% 29.84 in 10.0 mi South 9.2 mph 19.6 mph N/A   Scattered Clouds
2:15 PM 84.2 °F 83.8 °F 59.0 °F 42% 29.83 in 10.0 mi SSW 13.8 mph 21.9 mph N/A   Scattered Clouds
2:35 PM 86.0 °F 85.4 °F 59.0 °F 40% 29.83 in 10.0 mi South 17.3 mph 23.0 mph N/A   Scattered Clouds
2:55 PM 86.0 °F 85.4 °F 59.0 °F 40% 29.83 in 10.0 mi South 16.1 mph - N/A   Scattered Clouds
3:15 PM 86.0 °F 85.4 °F 59.0 °F 40% 29.82 in 10.0 mi South 13.8 mph 25.3 mph N/A   Clear
3:35 PM 86.0 °F 85.4 °F 59.0 °F 40% 29.81 in 10.0 mi South 9.2 mph 13.8 mph N/A   Clear
3:55 PM 86.0 °F 85.4 °F 59.0 °F 40% 29.81 in 10.0 mi South 16.1 mph 19.6 mph N/A   Clear
4:15 PM 86.0 °F 85.4 °F 59.0 °F 40% 29.80 in 10.0 mi SSE 12.7 mph - N/A   Clear
4:35 PM 86.0 °F 85.4 °F 59.0 °F 40% 29.81 in 10.0 mi South 8.1 mph - N/A   Clear
4:55 PM 86.0 °F 85.4 °F 59.0 °F 40% 29.81 in 10.0 mi SSE 6.9 mph - N/A   Clear
5:15 PM 86.0 °F 85.4 °F 59.0 °F 40% 29.82 in 10.0 mi South 12.7 mph - N/A   Clear
5:35 PM 86.0 °F 85.4 °F 59.0 °F 40% 29.83 in 10.0 mi SSW 15.0 mph - N/A   Scattered Clouds
5:55 PM 84.2 °F 83.8 °F 59.0 °F 42% 29.82 in 10.0 mi South 9.2 mph - N/A   Clear
6:15 PM 84.2 °F 83.5 °F 57.2 °F 40% 29.82 in 10.0 mi South 15.0 mph - N/A   Clear
6:35 PM 82.4 °F 82.0 °F 57.2 °F 42% 29.82 in 10.0 mi South 13.8 mph - N/A   Clear
6:55 PM 80.6 °F 80.5 °F 55.4 °F 42% 29.83 in 10.0 mi SSW 12.7 mph 17.3 mph N/A   Clear
7:15 PM 80.6 °F 80.5 °F 55.4 °F 42% 29.83 in 10.0 mi South 11.5 mph 17.3 mph N/A   Clear
7:35 PM 78.8 °F - 55.4 °F 44% 29.86 in 10.0 mi SSW 16.1 mph - N/A Thunderstorm Clear
7:55 PM 78.8 °F - 55.4 °F 44% 29.84 in 10.0 mi South 17.3 mph 21.9 mph N/A   Clear
8:15 PM 77.0 °F - 55.4 °F 47% 29.82 in 10.0 mi South 11.5 mph 26.5 mph N/A   Clear
8:35 PM 77.0 °F - 55.4 °F 47% 29.84 in 10.0 mi South 11.5 mph 17.3 mph N/A   Clear
8:55 PM 77.0 °F - 55.4 °F 47% 29.84 in 10.0 mi South 11.5 mph 18.4 mph N/A   Clear
9:15 PM 77.0 °F - 55.4 °F 47% 29.84 in 10.0 mi South 11.5 mph 16.1 mph N/A   Clear
9:35 PM 77.0 °F - 55.4 °F 47% 29.84 in 10.0 mi South 12.7 mph 20.7 mph N/A   Clear
9:55 PM 75.2 °F - 55.4 °F 50% 29.83 in 10.0 mi South 21.9 mph 27.6 mph N/A   Clear
10:15 PM 73.4 °F - 55.4 °F 53% 29.83 in 10.0 mi South 19.6 mph 26.5 mph N/A   Clear
10:35 PM 73.4 °F - 55.4 °F 53% 29.84 in 10.0 mi South 16.1 mph 24.2 mph N/A   Clear
10:55 PM 71.6 °F - 55.4 °F 57% 29.85 in 10.0 mi South 13.8 mph 19.6 mph N/A   Clear
11:15 PM 71.6 °F - 55.4 °F 57% 29.86 in 10.0 mi South 11.5 mph - N/A   Clear
11:35 PM 71.6 °F - 55.4 °F 57% 29.86 in 10.0 mi South 16.1 mph 23.0 mph N/A   Clear
11:55 PM 71.6 °F - 55.4 °F 57% 29.86 in 10.0 mi SSW 16.1 mph 21.9 mph N/A   Clear